EWG13GH LFMN-EDDH

Flight info

Callsign EWG13GH
Flight time 1h 47m
Altitude 36000
Route BASIP DCT ANAKI DCT ABESI DCT LOKTA/N0437F370 DCT TEDGO DCT HAREM DCT LOHRE DCT ELNAT/N0437F360 P605 NOLGO NOLGO3P
Aircraft A320/M-SDE3FGHIRWY/LB1

Departure

Time 2026-04-24 12:24
Airport Nice-Côte d'Azur Airport (LFMN)

Arrival

Time 2026-04-24 14:11
Airport Hamburg Helmut Schmidt Airport (EDDH)
Time Latitude Longitude Altitude Speed Heading
2026-04-24 11:50 43.66426 7.21408 24 ft 0 kts 351°
2026-04-24 12:10 43.66406 7.21413 23 ft 4 kts 351°
2026-04-24 12:11 43.66361 7.21413 21 ft 4 kts 45°
2026-04-24 12:11 43.66347 7.21382 25 ft 3 kts 80°
2026-04-24 12:11 43.66344 7.21360 23 ft 0 kts 80°
2026-04-24 12:18 43.66346 7.21379 25 ft 4 kts 81°
2026-04-24 12:19 43.66352 7.21431 23 ft 8 kts 79°
2026-04-24 12:19 43.66391 7.21505 21 ft 12 kts 46°
2026-04-24 12:19 43.66457 7.21596 21 ft 15 kts 45°
2026-04-24 12:19 43.66535 7.21703 21 ft 13 kts 44°
2026-04-24 12:20 43.66610 7.21806 21 ft 17 kts 45°
2026-04-24 12:20 43.66616 7.21939 21 ft 18 kts 133°
2026-04-24 12:20 43.66623 7.22067 21 ft 14 kts 45°
2026-04-24 12:20 43.66705 7.22180 21 ft 19 kts 44°
2026-04-24 12:21 43.66793 7.22300 21 ft 8 kts 45°
2026-04-24 12:21 43.66820 7.22357 21 ft 6 kts 76°
2026-04-24 12:21 43.66806 7.22405 20 ft 5 kts 133°
2026-04-24 12:21 43.66770 7.22455 20 ft 11 kts 135°
2026-04-24 12:22 43.66703 7.22548 20 ft 16 kts 135°
2026-04-24 12:22 43.66621 7.22656 21 ft 13 kts 149°
2026-04-24 12:22 43.66590 7.22658 21 ft 2 kts 169°
2026-04-24 12:22 43.66583 7.22697 21 ft 8 kts 105°
2026-04-24 12:23 43.66534 7.22763 22 ft 11 kts 163°
2026-04-24 12:23 43.66485 7.22738 24 ft 0 kts 224°
2026-04-24 12:23 43.66411 7.22638 21 ft 48 kts 224°
2026-04-24 12:23 43.66018 7.22099 23 ft 111 kts 225°
2026-04-24 12:24 43.65342 7.21165 46 ft 158 kts 226°
2026-04-24 12:24 43.64568 7.20072 597 ft 160 kts 225°
2026-04-24 12:24 43.63777 7.18983 1202 ft 164 kts 224°
2026-04-24 12:24 43.62934 7.17830 1649 ft 179 kts 223°
2026-04-24 12:25 43.62003 7.16567 2062 ft 196 kts 224°
2026-04-24 12:25 43.60852 7.15378 2422 ft 219 kts 198°
2026-04-24 12:25 43.59294 7.15433 2930 ft 238 kts 161°
2026-04-24 12:25 43.57752 7.16453 3452 ft 258 kts 152°
2026-04-24 12:26 43.56188 7.17811 4134 ft 272 kts 140°
2026-04-24 12:26 43.55150 7.20009 4886 ft 283 kts 107°
2026-04-24 12:26 43.54742 7.22738 5490 ft 297 kts 101°
2026-04-24 12:26 43.54291 7.25544 6337 ft 300 kts 104°
2026-04-24 12:27 43.53838 7.28282 7381 ft 293 kts 97°
2026-04-24 12:27 43.53824 7.31031 8521 ft 282 kts 82°
2026-04-24 12:27 43.54295 7.33682 9300 ft 288 kts 69°
2026-04-24 12:27 43.54979 7.36299 10135 ft 290 kts 68°
2026-04-24 12:28 43.55686 7.38946 10633 ft 304 kts 68°
2026-04-24 12:28 43.56526 7.41746 10861 ft 325 kts 61°
2026-04-24 12:28 43.57768 7.44351 11389 ft 333 kts 50°
2026-04-24 12:28 43.59236 7.46849 12098 ft 337 kts 50°
2026-04-24 12:29 43.60711 7.49384 12834 ft 340 kts 51°
2026-04-24 12:29 43.62191 7.51940 13566 ft 343 kts 51°
2026-04-24 12:29 43.63689 7.54525 14249 ft 346 kts 51°
2026-04-24 12:29 43.65199 7.57135 14870 ft 349 kts 51°
2026-04-24 12:30 43.66722 7.59768 15489 ft 352 kts 52°
2026-04-24 12:30 43.68240 7.62394 16099 ft 355 kts 52°
2026-04-24 12:30 43.69792 7.65081 16704 ft 359 kts 52°
2026-04-24 12:30 43.71356 7.67793 17298 ft 362 kts 52°
2026-04-24 12:31 43.72936 7.70532 17896 ft 366 kts 52°
2026-04-24 12:31 43.74552 7.73270 18486 ft 369 kts 51°
2026-04-24 12:31 43.76241 7.75972 19011 ft 372 kts 50°
2026-04-24 12:31 43.77951 7.78623 19546 ft 374 kts 49°
2026-04-24 12:32 43.79703 7.81309 20107 ft 376 kts 49°
2026-04-24 12:32 43.81467 7.84014 20663 ft 378 kts 50°
2026-04-24 12:32 43.83232 7.86743 21217 ft 380 kts 50°
2026-04-24 12:32 43.84975 7.89463 21766 ft 382 kts 50°
2026-04-24 12:33 43.86743 7.92236 22316 ft 385 kts 50°
2026-04-24 12:33 43.88517 7.95041 22866 ft 386 kts 52°
2026-04-24 12:33 43.90048 7.98122 23405 ft 387 kts 62°
2026-04-24 12:33 43.91373 8.01386 23886 ft 389 kts 62°
2026-04-24 12:34 43.92693 8.04639 24306 ft 391 kts 62°
2026-04-24 12:34 43.94036 8.07944 24711 ft 394 kts 61°
2026-04-24 12:34 43.95393 8.11276 25104 ft 396 kts 61°
2026-04-24 12:34 43.96755 8.14622 25484 ft 398 kts 61°
2026-04-24 12:35 43.98106 8.17938 25866 ft 401 kts 61°
2026-04-24 12:35 43.99490 8.21331 26224 ft 403 kts 61°
2026-04-24 12:35 44.00873 8.24731 26580 ft 405 kts 61°
2026-04-24 12:35 44.02244 8.28113 26930 ft 407 kts 61°
2026-04-24 12:36 44.03637 8.31553 27284 ft 409 kts 61°
2026-04-24 12:36 44.05036 8.35007 27634 ft 411 kts 61°
2026-04-24 12:36 44.06443 8.38484 27966 ft 413 kts 61°
2026-04-24 12:36 44.07855 8.41976 28305 ft 415 kts 61°
2026-04-24 12:37 44.09257 8.45450 28630 ft 416 kts 61°
2026-04-24 12:37 44.10680 8.48985 28950 ft 418 kts 61°
2026-04-24 12:37 44.12108 8.52538 29258 ft 420 kts 61°
2026-04-24 12:37 44.13523 8.56063 29551 ft 422 kts 61°
2026-04-24 12:38 44.14976 8.59693 29851 ft 424 kts 61°
2026-04-24 12:38 44.16397 8.63234 30134 ft 426 kts 60°
2026-04-24 12:38 44.18124 8.66622 30378 ft 428 kts 49°
2026-04-24 12:39 44.25657 8.73197 31034 ft 439 kts 17°
2026-04-24 12:39 44.28685 8.73914 31241 ft 443 kts
2026-04-24 12:39 44.30720 8.74226 31399 ft 443 kts
2026-04-24 12:40 44.33783 8.74698 31704 ft 442 kts
2026-04-24 12:40 44.37842 8.75330 32098 ft 441 kts
2026-04-24 12:40 44.39903 8.75652 32295 ft 441 kts
2026-04-24 12:40 44.42917 8.76129 32578 ft 440 kts
2026-04-24 12:41 44.45962 8.76618 32870 ft 439 kts
2026-04-24 12:41 44.49001 8.77104 33193 ft 439 kts
2026-04-24 12:41 44.52035 8.77586 33486 ft 438 kts
2026-04-24 12:41 44.55070 8.78062 33760 ft 438 kts
2026-04-24 12:42 44.58071 8.78534 34038 ft 437 kts
2026-04-24 12:42 44.61107 8.79014 34301 ft 437 kts
2026-04-24 12:42 44.64131 8.79494 34531 ft 436 kts
2026-04-24 12:42 44.67112 8.79969 34783 ft 436 kts
2026-04-24 12:43 44.70134 8.80451 35018 ft 435 kts
2026-04-24 12:43 44.73153 8.80933 35230 ft 435 kts
2026-04-24 12:43 44.76168 8.81415 35439 ft 435 kts
2026-04-24 12:43 44.79143 8.81886 35640 ft 435 kts
2026-04-24 12:44 44.82155 8.82360 35841 ft 435 kts
2026-04-24 12:44 44.85172 8.82839 36036 ft 435 kts
2026-04-24 12:44 44.88180 8.83323 36104 ft 434 kts
2026-04-24 12:45 44.94134 8.84284 36109 ft 432 kts
2026-04-24 12:45 45.00115 8.85252 36111 ft 432 kts
2026-04-24 12:46 45.06062 8.86212 36112 ft 432 kts
2026-04-24 12:46 45.12045 8.87176 36111 ft 432 kts
2026-04-24 12:47 45.18032 8.88139 36108 ft 432 kts
2026-04-24 12:47 45.23980 8.89094 36105 ft 432 kts
2026-04-24 12:48 45.29956 8.90065 36106 ft 432 kts
2026-04-24 12:48 45.35937 8.91045 36106 ft 432 kts
2026-04-24 12:49 45.41929 8.92022 36103 ft 432 kts
2026-04-24 12:49 45.47885 8.92999 36102 ft 433 kts
2026-04-24 12:50 45.53869 8.93974 36082 ft 433 kts
2026-04-24 12:50 45.59834 8.94948 36079 ft 433 kts
2026-04-24 12:51 45.65843 8.95940 36082 ft 433 kts
2026-04-24 12:51 45.71812 8.96930 36080 ft 433 kts
2026-04-24 12:52 45.77814 8.97921 36085 ft 433 kts
2026-04-24 12:52 45.83824 8.98922 36085 ft 433 kts
2026-04-24 12:53 45.89782 8.99913 36083 ft 433 kts
2026-04-24 12:53 45.95784 9.00898 36079 ft 433 kts
2026-04-24 12:54 46.01781 9.01895 36084 ft 433 kts
2026-04-24 12:54 46.07741 9.02900 36085 ft 433 kts
2026-04-24 12:55 46.13735 9.03911 36083 ft 433 kts
2026-04-24 12:55 46.19719 9.04733 36084 ft 433 kts
2026-04-24 12:56 46.25763 9.05094 36080 ft 434 kts
2026-04-24 12:56 46.31784 9.05352 36087 ft 434 kts
2026-04-24 12:57 46.37831 9.05708 36098 ft 434 kts
2026-04-24 12:57 46.43838 9.06128 36111 ft 434 kts
2026-04-24 12:58 46.49876 9.06566 36127 ft 434 kts
2026-04-24 12:58 46.55930 9.06985 36130 ft 434 kts
2026-04-24 12:59 46.61927 9.07397 36141 ft 434 kts
2026-04-24 12:59 46.67978 9.07820 36148 ft 434 kts
2026-04-24 13:00 46.73996 9.08226 36151 ft 434 kts
2026-04-24 13:00 46.80052 9.08630 36152 ft 434 kts
2026-04-24 13:01 46.86053 9.09046 36158 ft 434 kts
2026-04-24 13:01 46.92103 9.09476 36161 ft 435 kts
2026-04-24 13:02 46.98124 9.09893 36165 ft 435 kts
2026-04-24 13:02 47.04181 9.10304 36172 ft 435 kts
2026-04-24 13:03 47.10256 9.10727 36174 ft 436 kts
2026-04-24 13:03 47.16281 9.11147 36175 ft 436 kts
2026-04-24 13:04 47.22348 9.11571 36181 ft 436 kts
2026-04-24 13:04 47.28411 9.11986 36182 ft 436 kts
2026-04-24 13:05 47.34447 9.12416 36179 ft 436 kts
2026-04-24 13:05 47.40519 9.12847 36181 ft 436 kts
2026-04-24 13:06 47.46603 9.13272 36180 ft 437 kts
2026-04-24 13:06 47.52642 9.13694 36176 ft 436 kts
2026-04-24 13:07 47.58691 9.14119 36180 ft 437 kts
2026-04-24 13:07 47.64776 9.14555 36177 ft 437 kts
2026-04-24 13:08 47.70826 9.14987 36174 ft 437 kts
2026-04-24 13:08 47.76921 9.15425 36170 ft 437 kts
2026-04-24 13:09 47.86026 9.16069 36166 ft 438 kts
2026-04-24 13:09 47.92131 9.16505 36161 ft 438 kts
2026-04-24 13:10 47.98205 9.16939 36168 ft 438 kts
2026-04-24 13:10 48.04280 9.17376 36164 ft 438 kts
2026-04-24 13:11 48.10382 9.17821 36161 ft 439 kts
2026-04-24 13:11 48.16494 9.18264 36161 ft 439 kts
2026-04-24 13:12 48.22575 9.19056 36160 ft 439 kts
2026-04-24 13:12 48.28614 9.20191 36166 ft 439 kts
2026-04-24 13:13 48.34660 9.21329 36165 ft 439 kts
2026-04-24 13:13 48.40751 9.22373 36162 ft 439 kts
2026-04-24 13:14 48.46815 9.23375 36166 ft 440 kts
2026-04-24 13:14 48.52915 9.24395 36163 ft 440 kts
2026-04-24 13:15 48.58968 9.25428 36161 ft 440 kts
2026-04-24 13:15 48.65073 9.26460 36163 ft 440 kts
2026-04-24 13:16 48.71187 9.27383 36165 ft 441 kts
2026-04-24 13:16 48.77273 9.28274 36169 ft 441 kts
2026-04-24 13:17 48.83401 9.29208 36173 ft 441 kts
2026-04-24 13:17 48.89481 9.30152 36177 ft 441 kts
2026-04-24 13:18 48.95604 9.31094 36186 ft 441 kts
2026-04-24 13:18 49.01729 9.32041 36191 ft 442 kts
2026-04-24 13:19 49.07832 9.32984 36195 ft 442 kts
2026-04-24 13:19 49.13955 9.33936 36190 ft 441 kts
2026-04-24 13:20 49.20040 9.34876 36190 ft 441 kts
2026-04-24 13:20 49.26159 9.35823 36190 ft 441 kts
2026-04-24 13:21 49.32242 9.36780 36191 ft 441 kts
2026-04-24 13:21 49.38344 9.37753 36189 ft 441 kts
2026-04-24 13:22 49.44460 9.38711 36186 ft 441 kts
2026-04-24 13:22 49.50543 9.39655 36186 ft 441 kts
2026-04-24 13:23 49.56658 9.40622 36183 ft 441 kts
2026-04-24 13:23 49.62748 9.41588 36181 ft 441 kts
2026-04-24 13:24 49.68863 9.42559 36182 ft 441 kts
2026-04-24 13:24 49.74977 9.43536 36180 ft 441 kts
2026-04-24 13:25 49.81056 9.44508 36179 ft 441 kts
2026-04-24 13:25 49.87168 9.45490 36179 ft 441 kts
2026-04-24 13:26 49.93282 9.46473 36178 ft 441 kts
2026-04-24 13:26 49.99364 9.47451 36178 ft 441 kts
2026-04-24 13:27 50.05484 9.48433 36179 ft 441 kts
2026-04-24 13:27 50.11559 9.49447 36178 ft 441 kts
2026-04-24 13:28 50.17678 9.50543 36183 ft 441 kts
2026-04-24 13:28 50.23754 9.51643 36183 ft 442 kts
2026-04-24 13:29 50.29881 9.52737 36185 ft 441 kts
2026-04-24 13:29 50.35959 9.53808 36186 ft 442 kts
2026-04-24 13:30 50.42085 9.54895 36187 ft 441 kts
2026-04-24 13:30 50.48160 9.55988 36190 ft 441 kts
2026-04-24 13:31 50.54279 9.57075 36197 ft 441 kts
2026-04-24 13:31 50.60355 9.58168 36197 ft 442 kts
2026-04-24 13:32 50.66483 9.59274 36203 ft 441 kts
2026-04-24 13:32 50.72567 9.60364 36203 ft 442 kts
2026-04-24 13:33 50.78685 9.61467 36201 ft 441 kts
2026-04-24 13:33 50.84759 9.62567 36204 ft 441 kts
2026-04-24 13:34 50.90886 9.63688 36209 ft 441 kts
2026-04-24 13:34 50.96961 9.64804 36211 ft 442 kts
2026-04-24 13:35 51.03078 9.65920 36207 ft 441 kts
2026-04-24 13:35 51.09156 9.67022 36210 ft 442 kts
2026-04-24 13:36 51.14278 9.67965 36213 ft 442 kts
2026-04-24 13:36 51.21347 9.69273 36208 ft 441 kts
2026-04-24 13:37 51.26465 9.70135 36208 ft 441 kts
2026-04-24 13:37 51.32548 9.71082 36211 ft 441 kts
2026-04-24 13:38 51.38665 9.72051 36210 ft 441 kts
2026-04-24 13:38 51.44726 9.73029 36210 ft 441 kts
2026-04-24 13:39 51.50858 9.74065 36206 ft 441 kts
2026-04-24 13:39 51.56960 9.75248 36203 ft 441 kts
2026-04-24 13:40 51.63029 9.76441 36197 ft 441 kts
2026-04-24 13:40 51.69140 9.77611 36188 ft 441 kts
2026-04-24 13:41 51.75203 9.78760 36179 ft 441 kts
2026-04-24 13:41 51.81311 9.79920 36190 ft 441 kts
2026-04-24 13:42 51.87423 9.81084 36194 ft 441 kts
2026-04-24 13:42 51.93493 9.82248 36192 ft 441 kts
2026-04-24 13:43 51.99600 9.83442 36148 ft 442 kts
2026-04-24 13:43 52.02663 9.84039 35887 ft 442 kts
2026-04-24 13:43 52.05723 9.84638 35638 ft 442 kts
2026-04-24 13:44 52.08787 9.85238 35390 ft 443 kts
2026-04-24 13:44 52.11818 9.85826 35145 ft 443 kts
2026-04-24 13:44 52.14890 9.86421 34772 ft 444 kts
2026-04-24 13:44 52.17976 9.87020 34091 ft 444 kts
2026-04-24 13:45 52.20994 9.87616 33531 ft 440 kts
2026-04-24 13:45 52.24024 9.88223 32976 ft 436 kts
2026-04-24 13:45 52.27007 9.89259 32406 ft 437 kts 10°
2026-04-24 13:45 52.29901 9.90526 31848 ft 434 kts 10°
2026-04-24 13:46 52.32819 9.91811 31302 ft 432 kts 11°
2026-04-24 13:46 52.35695 9.93096 31069 ft 421 kts 11°
2026-04-24 13:46 52.38477 9.94365 30971 ft 407 kts 11°
2026-04-24 13:46 52.41131 9.95587 30884 ft 395 kts 11°
2026-04-24 13:47 52.46369 9.97998 30718 ft 391 kts 11°
2026-04-24 13:47 52.51617 10.00409 30556 ft 390 kts 11°
2026-04-24 13:48 52.56817 10.02792 30394 ft 389 kts 11°
2026-04-24 13:48 52.62040 10.05206 30227 ft 388 kts 11°
2026-04-24 13:49 52.67199 10.07598 30034 ft 386 kts 11°
2026-04-24 13:49 52.72368 10.09992 29846 ft 384 kts 11°
2026-04-24 13:50 52.77480 10.12368 29360 ft 383 kts 11°
2026-04-24 13:50 52.80049 10.13563 28891 ft 381 kts 11°
2026-04-24 13:50 52.82594 10.14751 28429 ft 379 kts 11°
2026-04-24 13:51 52.85133 10.15940 27981 ft 376 kts 11°
2026-04-24 13:51 52.87623 10.17103 27537 ft 374 kts 11°
2026-04-24 13:51 52.90118 10.18270 27098 ft 371 kts 11°
2026-04-24 13:51 52.92596 10.19435 26674 ft 369 kts 11°
2026-04-24 13:52 52.95057 10.20595 26247 ft 366 kts 11°
2026-04-24 13:52 52.97503 10.21745 25821 ft 363 kts 11°
2026-04-24 13:52 52.99929 10.22885 25399 ft 361 kts 11°
2026-04-24 13:52 53.02340 10.24019 24974 ft 359 kts 11°
2026-04-24 13:53 53.04738 10.25147 24541 ft 357 kts 11°
2026-04-24 13:53 53.07121 10.26272 24105 ft 355 kts 11°
2026-04-24 13:53 53.09470 10.27385 23649 ft 354 kts 11°
2026-04-24 13:53 53.11833 10.28509 23177 ft 352 kts 11°
2026-04-24 13:54 53.14184 10.29628 22729 ft 350 kts 11°
2026-04-24 13:54 53.16515 10.30733 22281 ft 347 kts 11°
2026-04-24 13:54 53.18836 10.31831 21848 ft 345 kts 11°
2026-04-24 13:54 53.21146 10.32925 21417 ft 344 kts 11°
2026-04-24 13:55 53.23439 10.34011 20976 ft 342 kts 12°
2026-04-24 13:55 53.25729 10.35098 20534 ft 341 kts 12°
2026-04-24 13:55 53.28006 10.36180 20101 ft 340 kts 12°
2026-04-24 13:55 53.30288 10.37268 19665 ft 339 kts 12°
2026-04-24 13:56 53.32553 10.38350 19239 ft 338 kts 12°
2026-04-24 13:56 53.34785 10.39420 18819 ft 338 kts 12°
2026-04-24 13:56 53.37047 10.40505 18380 ft 337 kts 12°
2026-04-24 13:56 53.39303 10.41589 17927 ft 336 kts 12°
2026-04-24 13:57 53.41548 10.42668 17508 ft 334 kts 13°
2026-04-24 13:57 53.43780 10.43740 17094 ft 331 kts 13°
2026-04-24 13:57 53.45970 10.44792 16682 ft 329 kts 13°
2026-04-24 13:57 53.48173 10.45851 16279 ft 328 kts 13°
2026-04-24 13:58 53.50360 10.46906 15878 ft 326 kts 13°
2026-04-24 13:58 53.52541 10.47963 15476 ft 324 kts 13°
2026-04-24 13:58 53.54705 10.49013 15067 ft 323 kts 13°
2026-04-24 13:58 53.56859 10.50050 14668 ft 321 kts 13°
2026-04-24 13:59 53.59006 10.51082 14265 ft 320 kts 13°
2026-04-24 13:59 53.61118 10.52097 13862 ft 318 kts 13°
2026-04-24 13:59 53.63248 10.53128 13444 ft 316 kts 13°
2026-04-24 13:59 53.65355 10.54155 13036 ft 313 kts 13°
2026-04-24 14:00 53.67420 10.55165 12641 ft 310 kts 13°
2026-04-24 14:00 53.69485 10.56176 12260 ft 307 kts 13°
2026-04-24 14:00 53.71535 10.57179 11849 ft 305 kts 13°
2026-04-24 14:00 53.73566 10.58172 11452 ft 302 kts 13°
2026-04-24 14:01 53.75587 10.59162 11058 ft 300 kts 13°
2026-04-24 14:01 53.77583 10.60138 10661 ft 298 kts 13°
2026-04-24 14:01 53.79547 10.61097 10281 ft 295 kts 13°
2026-04-24 14:01 53.81492 10.62003 10159 ft 282 kts
2026-04-24 14:02 53.83390 10.62105 9885 ft 266 kts 350°
2026-04-24 14:02 53.85132 10.61204 9278 ft 260 kts 333°
2026-04-24 14:02 53.86612 10.59448 8773 ft 259 kts 321°
2026-04-24 14:02 53.87953 10.57476 8289 ft 258 kts 315°
2026-04-24 14:03 53.88825 10.54834 7809 ft 263 kts 287°
2026-04-24 14:03 53.88769 10.51710 7316 ft 275 kts 256°
2026-04-24 14:03 53.87741 10.48886 6794 ft 289 kts 232°
2026-04-24 14:03 53.86339 10.46392 6226 ft 294 kts 231°
2026-04-24 14:04 53.85017 10.43825 5752 ft 285 kts 235°
2026-04-24 14:04 53.83823 10.41343 5676 ft 258 kts 236°
2026-04-24 14:04 53.82736 10.39088 5615 ft 237 kts 236°
2026-04-24 14:04 53.81731 10.37014 5554 ft 219 kts 236°
2026-04-24 14:05 53.80774 10.35040 5358 ft 215 kts 236°
2026-04-24 14:05 53.79825 10.33084 5091 ft 215 kts 236°
2026-04-24 14:05 53.78873 10.31128 4813 ft 215 kts 235°
2026-04-24 14:05 53.77929 10.29190 4548 ft 215 kts 235°
2026-04-24 14:06 53.76972 10.27228 4252 ft 217 kts 235°
2026-04-24 14:06 53.76007 10.25252 3963 ft 217 kts 234°
2026-04-24 14:06 53.75065 10.23324 3702 ft 211 kts 234°
2026-04-24 14:06 53.74154 10.21466 3407 ft 198 kts 235°
2026-04-24 14:07 53.73291 10.19699 3143 ft 191 kts 235°
2026-04-24 14:07 53.72467 10.18018 2889 ft 179 kts 236°
2026-04-24 14:07 53.71709 10.16472 2660 ft 166 kts 235°
2026-04-24 14:07 53.71006 10.15039 2451 ft 151 kts 236°
2026-04-24 14:08 53.70366 10.13734 2249 ft 140 kts 237°
2026-04-24 14:08 53.69757 10.12492 2064 ft 134 kts 237°
2026-04-24 14:08 53.69179 10.11311 1881 ft 131 kts 236°
2026-04-24 14:08 53.68600 10.10131 1704 ft 130 kts 236°
2026-04-24 14:09 53.68022 10.08952 1523 ft 130 kts 237°
2026-04-24 14:09 53.67447 10.07782 1340 ft 128 kts 237°
2026-04-24 14:09 53.66876 10.06621 1164 ft 128 kts 237°
2026-04-24 14:09 53.66306 10.05462 968 ft 128 kts 236°
2026-04-24 14:10 53.65927 10.04690 846 ft 128 kts 237°
2026-04-24 14:10 53.65178 10.03181 658 ft 127 kts 238°
2026-04-24 14:10 53.64610 10.02030 477 ft 129 kts 237°
2026-04-24 14:10 53.64033 10.00850 252 ft 132 kts 236°
2026-04-24 14:11 53.63452 9.99678 68 ft 126 kts 235°
2026-04-24 14:11 53.62970 9.98684 45 ft 87 kts 231°
2026-04-24 14:11 53.62559 9.97848 41 ft 24 kts 227°
2026-04-24 14:12 53.62449 9.97813 42 ft 15 kts 143°
2026-04-24 14:12 53.62431 9.97931 46 ft 9 kts 81°
2026-04-24 14:12 53.62438 9.97998 46 ft 4 kts 80°
2026-04-24 14:12 53.62441 9.98027 47 ft 1 kts 80°
2026-04-24 14:13 53.62443 9.98046 47 ft 3 kts 80°
2026-04-24 14:13 53.62457 9.98088 45 ft 5 kts 50°
2026-04-24 14:13 53.62492 9.98152 47 ft 11 kts 47°
2026-04-24 14:13 53.62552 9.98271 47 ft 16 kts 50°
2026-04-24 14:14 53.62631 9.98432 47 ft 18 kts 50°
2026-04-24 14:14 53.62706 9.98585 47 ft 16 kts 50°
2026-04-24 14:14 53.62842 9.98860 47 ft 14 kts 50°
2026-04-24 14:15 53.62902 9.98980 47 ft 13 kts 50°
2026-04-24 14:15 53.62962 9.99103 47 ft 16 kts 50°
2026-04-24 14:15 53.63037 9.99256 47 ft 16 kts 52°
2026-04-24 14:15 53.63084 9.99366 47 ft 3 kts 55°
2026-04-24 14:16 53.63085 9.99368 47 ft 1 kts 55°
2026-04-24 14:16 53.63094 9.99390 45 ft 5 kts 55°
2026-04-24 14:16 53.63123 9.99462 46 ft 10 kts 55°
2026-04-24 14:17 53.63217 9.99661 48 ft 10 kts 49°
2026-04-24 14:17 53.63273 9.99754 48 ft 13 kts 45°
2026-04-24 14:17 53.63407 10.00020 48 ft 9 kts 50°
2026-04-24 14:18 53.63431 10.00089 49 ft 0 kts 84°
2026-04-24 14:18 53.63431 10.00088 48 ft 0 kts 84°
2026-04-24 14:19 53.63431 10.00089 48 ft 0 kts 84°
2026-04-24 14:19 53.63428 10.00116 48 ft 5 kts 104°
2026-04-24 14:20 53.63398 10.00197 48 ft 11 kts 128°
2026-04-24 14:20 53.63309 10.00235 48 ft 14 kts 175°
2026-04-24 14:20 53.63227 10.00245 48 ft 12 kts 176°
2026-04-24 14:20 53.63143 10.00255 47 ft 11 kts 176°
2026-04-24 14:21 53.63079 10.00290 48 ft 9 kts 112°
2026-04-24 14:21 53.63074 10.00369 48 ft 4 kts 93°
2026-04-24 14:21 53.63073 10.00388 48 ft 0 kts 93°